Regional Weather Roundup
Issued by NWS Glasgow, MT

Home | Current Version | Previous Version | Text Only | Print | Product List | Glossary On
Versions: 1 2 3 4 5 6 7 8 9 10 11 12 13 14 15 16 17 18 19 20 21 22 23 24 25 26 27 28 29 30 31 32 33 34 35 36 37 38 39 40 41 42 43 44 45 46 47 48 49 50
000
ASUS45 KGGW 011615
RWRGGW
HOURLY REGIONAL WEATHER ROUNDUP FOR NORTHEAST MONTANA
NATIONAL WEATHER SERVICE GLASGOW MONTANA
1000 AM MDT SUN MAY 01 2016

NOTE: "FAIR" INDICATES FEW OR NO CLOUDS BELOW 12,000 FEET WITH NO
SIGNIFICANT WEATHER AND/OR OBSTRUCTIONS TO VISISBILITY.

NORTHEAST MONTANA


CITY           SKY/WX    TMP DP  RH WIND       PRES   REMARKS
GLASGOW        SUNNY     54  35  48 W5        30.34F
PLENTYWOOD       N/A     59  27  29 SW1         N/A
WOLF POINT     SUNNY     55  35  47 CALM      30.34F
JORDAN           N/A     54  36  50 CALM      30.34F
WINNETT          N/A     56  37  49 E1          N/A
SIDNEY         SUNNY     54  36  50 CALM      30.34F
GLENDIVE       SUNNY     54  36  50 CALM      30.36F
MALTA            N/A     60  38  43 S2          N/A
SCOBEY           N/A     57  31  37 E7        30.29F
OPHEIM           N/A     54  28  37 CALM      30.18F

FORT PECK REPORTS


CITY           SKY/WX    TMP DP  RH WIND       PRES   REMARKS
FORT PECK        N/A     49  42  77 S5          N/A
THE PINES        N/A     55  37  50 S3          N/A

SOUTHEAST MONTANA


CITY           SKY/WX    TMP DP  RH WIND       PRES   REMARKS
BILLINGS       MOSUNNY   50  33  52 S6        30.34F
MILES CITY     SUNNY     53  35  50 CALM      30.35F
BAKER          SUNNY     53  31  42 W7        30.35F
LIVINGSTON     PTSUNNY   50  30  46 E14       30.31F

CENTRAL MONTANA


CITY           SKY/WX    TMP DP  RH WIND       PRES   REMARKS
HAVRE          SUNNY     52  40  63 VRB5      30.34F
LEWISTOWN      SUNNY     53  28  38 VRB6G17   30.34F
GREAT FALLS    SUNNY     49  36  61 SE5       30.33F
CUT BANK       SUNNY     49  39  68 SE6       30.32F
HELENA         SUNNY     47  37  68 N5        30.32F
BUTTE          SUNNY     44  26  49 SE17G26   30.30F
BOZEMAN        SUNNY     49  33  54 CALM      30.31F

WESTERN MONTANA


CITY           SKY/WX    TMP DP  RH WIND       PRES   REMARKS
MISSOULA       SUNNY     51  39  63 VRB3      30.30F
KALISPELL      NOT AVBL

NORTH DAKOTA


CITY           SKY/WX    TMP DP  RH WIND       PRES   REMARKS
WILLISTON      SUNNY     54  30  40 CALM      30.34F
DICKINSON      SUNNY     53  29  39 VRB5      30.31F
MINOT          SUNNY     61  28  28 W3        30.32F
BISMARCK       SUNNY     55  31  39 VRB3      30.33F

SOUTHERN SASKATCHEWAN


CITY           SKY/WX    TMP DP  RH WIND       PRES   REMARKS
REGINA         MOSUNNY   64  27  24 SW9       30.28F
ESTEVAN        MOSUNNY   59  30  33 VRB2      30.32F
SWIFT CURRENT  SUNNY     59  36  41 W12       30.29F




USA.gov is the U.S. government's official web portal to all federal, state and local government web resources and services.